Regional Weather Roundup
Issued by NWS

Home | Current Version | Previous Version | Graphics & Text | Print | Product List | Glossary On
Versions: 1 2 3 4 5 6 7 8 9 10 11 12 13 14 15 16 17 18 19 20 21 22 23 24 25 26 27 28 29 30 31 32 33 34 35 36 37 38 39 40 41 42 43 44 45 46 47 48 49 50
000
ASUS45 KTFX 310810
RWRMT
MONTANA REGIONAL WEATHER ROUNDUP
NATIONAL WEATHER SERVICE GREAT FALLS MT
200 AM MDT FRI JUL 31 2015

NOTE: "FAIR" INDICATES FEW OR NO CLOUDS BELOW 12000 FEET WITH NO
SIGNIFICANT WEATHER AND/OR OBSTRUCTIONS TO VISIBILITY.

MTZ001>007-043-310900-
WEST OF THE DIVIDE

CITY           SKY/WX    TMP DP  RH WIND       PRES   REMARKS
KALISPELL      SUNNY     53  41  63 CALM      30.16S
MISSOULA       CLEAR     59  43  55 CALM      30.21S
BUTTE          CLEAR     53  41  63 SE5       30.35S
MULLAN PASS    CLEAR     69  26  20 CALM      30.36S
DEER LODGE       N/A     52  39  62 CALM      30.34R
EUREKA           N/A     57  37  47 CALM        N/A
HAMILTON         N/A     63  41  45 SW7       30.23R
LIBBY            N/A     55  37  50 CALM      30.16S
PLAINS           N/A     57  40  53 CALM      30.16S
RONAN            N/A     57  44  62 CALM      30.20S
$$

MTZ008-052>055-310900-
SOUTHWEST MONTANA

CITY           SKY/WX    TMP DP  RH WIND       PRES   REMARKS
BOZEMAN        CLEAR     54  45  71 SE6       30.27S
DILLON         CLEAR     60  39  45 S8        30.31R
W YELLOWSTONE  CLEAR     41  37  87 CALM      30.44S
THREE FORKS      N/A     54  33  44 CALM      30.22S
TWIN BRIDGES     N/A     55  42  61 E5        30.26R
$$

MTZ009-010-012-014-046-048-049-054-310900-
EAST SLOPES AND CENTRAL MONTANA

CITY           SKY/WX    TMP DP  RH WIND       PRES   REMARKS
CUT BANK       CLEAR     55  39  54 NW6       30.20S
GREAT FALLS    CLEAR     62  42  47 SW8       30.18S
MALMSTROM AFB  CLEAR     60  43  54 SW5       30.18R
HELENA         CLEAR     63  42  46 CALM      30.23S
CONRAD           N/A     51  47  86 N3        30.19F
$$

MTZ011-013-016-021-045-047-050-051-310900-
NORTH CENTRAL MONTANA

CITY           SKY/WX    TMP DP  RH WIND       PRES   REMARKS
HAVRE          CLEAR     61  50  67 E10       30.14F
LEWISTOWN      CLEAR     58  43  57 SE6       30.25F
CHINOOK          N/A     63  52  67 E6        30.15F
$$

MTZ017>020-022>027-061-062-310900-
NORTHEAST MONTANA

CITY           SKY/WX    TMP DP  RH WIND       PRES   REMARKS
GLASGOW        CLEAR     63  50  62 NE9       30.16S
JORDAN           N/A     53  46  77 W3        30.18F
SIDNEY         CLEAR     55  48  76 NW3       30.16S
WOLF POINT     CLEAR     55  47  74 CALM      30.17R
MALTA            N/A     58  50  75 CALM      30.12F
PLENTYWOOD       N/A     61  50  67 NE3       30.16F
POPLAR           N/A     57  52  82 N3        30.17S
$$

MTZ028>42-056>058-310900-
SOUTHCENTRAL AND SOUTHEAST MONTANA

CITY           SKY/WX    TMP DP  RH WIND       PRES   REMARKS
BAKER          CLEAR     56  44  64 CALM      30.23S
BILLINGS       PTCLDY    66  41  40 N7        30.24S
LIVINGSTON     CLEAR     50  41  71 CALM      30.29S
MILES CITY     CLEAR     65  46  50 CALM      30.20S
EKALAKA          N/A     60  41  49 SE6       30.21F
FORSYTH          N/A     66  45  45 CALM      30.20S
LAUREL           N/A     65  37  35 MISG      30.20S
ROUNDUP          N/A     64  38  38 CALM      30.14S
$$

REGIONAL REPORTS...DAKOTAS

CITY           SKY/WX    TMP DP  RH WIND       PRES   REMARKS
WILLISTON      CLEAR     55  50  83 W3        30.17S
MINOT          CLEAR     57  48  72 SW12      30.12S
DICKINSON      CLEAR     51  45  79 S6        30.19F
BEACH          FAIR      50  48  93 S3        30.21F
CROSBY         FAIR      55  55 100 SW8       30.15S
BISMARCK       CLEAR     57  52  83 SW3       30.17S
GRAND FORKS    CLEAR     56  51  84 W8        30.02S
FARGO          CLEAR     58  53  84 W8        30.05S
BUFFALO SD       N/A     64  47  53 NW3       30.17F
RAPID CITY     CLEAR     58  51  78 N7        30.23R
$$

REGIONAL REPORTS...WYOMING/IDAHO/WASHINGTON

CITY           SKY/WX    TMP DP  RH WIND       PRES   REMARKS
GILLETTE       CLEAR     54  41  61 SW5       30.29S
SHERIDAN       CLEAR     53  45  74 CALM      30.26F
BUFFALO WY     CLEAR     62  37  39 W7        30.34S
CODY           CLEAR     66  36  32 SW7       30.32S
YELLOWSTONE LA   N/A     42  33  70 CALM      30.54S
IDAHO FALLS    CLEAR     48  43  82 N3        30.28S
SALMON         CLEAR     55  45  67 CALM      30.26R
BOISE          CLEAR     74  35  24 SE10      30.12S
SPOKANE        PTCLDY    73  30  20 SE7       30.10S
$$

REGIONAL REPORTS...ALBERTA

CITY           SKY/WX    TMP DP  RH WIND       PRES   REMARKS
EDMONTON       CLOUDY    63  48  59 SW5       30.13F
CALGARY        CLEAR     61  43  51 SE5       30.21F
LETHBRIDGE     CLEAR     52  45  76 W6        30.14F
MEDICINE HAT   CLEAR     61  43  51 NE9       30.14F
WATERTON GATE    N/A     48  39  71 NW2         N/A
CARDSTON         N/A     61  36  39 SW10        N/A
MILK RIVER       N/A     59  45  58 W2          N/A
ONEFOUR          N/A     57  48  72 E10         N/A
$$

REGIONAL REPORTS...SASKATCHEWAN

CITY           SKY/WX    TMP DP  RH WIND       PRES   REMARKS
SWIFT CURRENT  CLEAR     57  50  77 SE5       30.18S
REGINA         CLEAR     52  50  93 NW5       30.14S
SASKATOON      PTCLDY    48  46  93 W9        30.14S
CYPRESS HILLS    N/A     59  41  51 SE5         N/A
VAL MARIE        N/A     50  48  93 NE3         N/A
ROCKGLEN         N/A     55  50  82 S5          N/A
ASSINIBOIA       N/A     50  48  93 S3          N/A
$$



USA.gov is the U.S. government's official web portal to all federal, state and local government web resources and services.